Wetterdaten: Freitag, 10.10.2003
Datum Zeit Temp. A Sch. Temp. A Son. Feuchte A. Luftdruck Regen Wind Richtung Richtung Sonnenschein Helligkeit Taupunkt Windchill
10.10.2003 00:00 11,9 C 11,8 C 83 % 1017 hPa 0,0 l/m 1,4 m/s (1 Bft) W22.5 265 0,00 min 0 lux 9,1 C 11,9 C
10.10.2003 00:05 11,9 C 11,8 C 83 % 1017 hPa 0,0 l/m 2,8 m/s (1 Bft) W45 270 0,00 min 0 lux 9,1 C 9,7 C
10.10.2003 00:10 11,9 C 11,8 C 83 % 1017 hPa 0,0 l/m 1,6 m/s (1 Bft) W45 260 0,00 min 0 lux 9,1 C 11,9 C
10.10.2003 00:15 11,9 C 11,8 C 83 % 1017 hPa 0,0 l/m 1,8 m/s (1 Bft) W-SW22.5 255 0,00 min 0 lux 9,1 C 11,9 C
10.10.2003 00:20 11,9 C 11,8 C 82 % 1017 hPa 0,0 l/m 1,5 m/s (1 Bft) W22.5 265 0,00 min 0 lux 8,9 C 11,9 C
10.10.2003 00:25 11,9 C 11,8 C 82 % 1017 hPa 0,0 l/m 1,0 m/s (0 Bft) W 265 0,00 min 0 lux 8,9 C 11,9 C
10.10.2003 00:30 11,8 C 11,8 C 82 % 1017 hPa 0,0 l/m 0,1 m/s (0 Bft) W 270 0,00 min 0 lux 8,8 C 11,8 C
10.10.2003 00:35 11,7 C 11,8 C 83 % 1017 hPa 0,0 l/m 0,4 m/s (0 Bft) W 270 0,00 min 0 lux 8,9 C 11,7 C
10.10.2003 00:40 11,7 C 11,8 C 83 % 1017 hPa 0,0 l/m 0,0 m/s (0 Bft) W 270 0,00 min 0 lux 8,9 C 11,7 C
10.10.2003 00:45 11,6 C 11,7 C 83 % 1017 hPa 0,0 l/m 0,0 m/s (0 Bft) W 270 0,00 min 0 lux 8,8 C 11,6 C
10.10.2003 00:50 11,6 C 11,7 C 84 % 1017 hPa 0,0 l/m 0,9 m/s (0 Bft) W 270 0,00 min 0 lux 9,0 C 11,6 C
10.10.2003 00:55 11,5 C 11,7 C 84 % 1017 hPa 0,0 l/m 1,0 m/s (0 Bft) W 270 0,00 min 0 lux 8,9 C 11,5 C
10.10.2003 01:00 11,7 C 11,7 C 84 % 1017 hPa 0,0 l/m 1,2 m/s (1 Bft) W-SW22.5 240 0,00 min 0 lux 9,1 C 11,7 C
10.10.2003 01:05 12,0 C 11,7 C 82 % 1017 hPa 0,0 l/m 3,2 m/s (1 Bft) W22.5 260 0,00 min 0 lux 9,0 C 9,0 C
10.10.2003 01:10 12,0 C 11,8 C 82 % 1017 hPa 0,0 l/m 2,5 m/s (1 Bft) W-SW22.5 255 0,00 min 0 lux 9,0 C 10,4 C
10.10.2003 01:15 12,0 C 11,8 C 81 % 1017 hPa 0,0 l/m 2,6 m/s (1 Bft) W22.5 265 0,00 min 0 lux 8,8 C 10,1 C
10.10.2003 01:20 11,9 C 11,8 C 82 % 1017 hPa 0,0 l/m 2,4 m/s (1 Bft) W-SW22.5 255 0,00 min 0 lux 8,9 C 10,5 C
10.10.2003 01:25 11,8 C 11,8 C 83 % 1017 hPa 0,0 l/m 2,4 m/s (1 Bft) W-SW22.5 255 0,00 min 0 lux 9,0 C 10,4 C
10.10.2003 01:30 11,8 C 11,8 C 83 % 1017 hPa 0,0 l/m 2,1 m/s (1 Bft) W22.5 260 0,00 min 0 lux 9,0 C 11,0 C
10.10.2003 01:35 11,9 C 11,8 C 83 % 1017 hPa 0,0 l/m 2,4 m/s (1 Bft) W-SW22.5 255 0,00 min 0 lux 9,1 C 10,5 C
10.10.2003 01:40 11,8 C 11,8 C 84 % 1017 hPa 0,0 l/m 3,8 m/s (1 Bft) W22.5 260 0,00 min 0 lux 9,2 C 7,9 C
10.10.2003 01:45 11,9 C 11,9 C 84 % 1017 hPa 0,0 l/m 2,4 m/s (1 Bft) W22.5 260 0,00 min 0 lux 9,3 C 10,4 C
10.10.2003 01:50 12,0 C 11,9 C 83 % 1017 hPa 0,0 l/m 2,5 m/s (1 Bft) W-SW22.5 255 0,00 min 0 lux 9,2 C 10,4 C
10.10.2003 01:55 12,1 C 11,9 C 82 % 1017 hPa 0,0 l/m 3,3 m/s (1 Bft) W-SW22.5 250 0,00 min 0 lux 9,1 C 9,1 C
10.10.2003 02:00 12,1 C 11,9 C 82 % 1017 hPa 0,0 l/m 3,6 m/s (1 Bft) W22.5 260 0,00 min 0 lux 9,1 C 8,6 C
10.10.2003 02:05 12,2 C 11,9 C 82 % 1017 hPa 0,0 l/m 4,4 m/s (1 Bft) W-SW22.5 250 0,00 min 0 lux 9,2 C 7,4 C
10.10.2003 02:10 12,2 C 12,0 C 81 % 1017 hPa 0,0 l/m 4,1 m/s (1 Bft) W-SW22.5 250 0,00 min 0 lux 9,0 C 8,0 C
10.10.2003 02:15 12,2 C 12,0 C 82 % 1016 hPa 0,0 l/m 2,8 m/s (1 Bft) W-SW22.5 250 0,00 min 0 lux 9,2 C 10,0 C
10.10.2003 02:20 12,2 C 12,0 C 82 % 1016 hPa 0,0 l/m 2,9 m/s (1 Bft) W-SW22.5 255 0,00 min 0 lux 9,2 C 9,7 C
10.10.2003 02:25 12,2 C 12,0 C 82 % 1016 hPa 0,0 l/m 2,9 m/s (1 Bft) W22.5 260 0,00 min 0 lux 9,2 C 9,8 C
10.10.2003 02:30 12,2 C 12,0 C 82 % 1016 hPa 0,0 l/m 3,5 m/s (1 Bft) W-SW22.5 255 0,00 min 0 lux 9,2 C 8,8 C
10.10.2003 02:35 12,2 C 12,0 C 82 % 1016 hPa 0,0 l/m 3,3 m/s (1 Bft) W22.5 260 0,00 min 0 lux 9,2 C 9,0 C
10.10.2003 02:40 12,2 C 12,1 C 82 % 1016 hPa 0,0 l/m 3,1 m/s (1 Bft) W-SW22.5 255 0,00 min 0 lux 9,2 C 9,5 C
10.10.2003 02:45 12,2 C 12,1 C 82 % 1016 hPa 0,0 l/m 4,4 m/s (1 Bft) W-SW22.5 255 0,00 min 0 lux 9,2 C 7,5 C
10.10.2003 02:50 12,2 C 12,1 C 82 % 1017 hPa 0,0 l/m 4,1 m/s (1 Bft) W-SW22.5 250 0,00 min 0 lux 9,2 C 7,8 C
10.10.2003 02:55 12,3 C 12,1 C 82 % 1016 hPa 0,0 l/m 5,1 m/s (1 Bft) W-SW45 255 0,00 min 0 lux 9,3 C 6,7 C
10.10.2003 03:00 12,5 C 12,1 C 79 % 1016 hPa 0,0 l/m 7,3 m/s (2 Bft) W-SW45 255 0,00 min 0 lux 9,0 C 4,9 C
10.10.2003 03:05 12,5 C 12,1 C 79 % 1016 hPa 0,0 l/m 7,3 m/s (2 Bft) W-SW45 255 0,00 min 0 lux 9,0 C 4,9 C
10.10.2003 03:10 12,5 C 12,2 C 76 % 1016 hPa 0,0 l/m 9,7 m/s (2 Bft) W-SW45 250 0,00 min 0 lux 8,4 C 3,3 C
10.10.2003 03:15 12,4 C 12,2 C 76 % 1016 hPa 0,0 l/m 8,3 m/s (2 Bft) W-SW45 250 0,00 min 0 lux 8,3 C 4,0 C
10.10.2003 03:20 12,3 C 12,2 C 77 % 1016 hPa 0,0 l/m 7,3 m/s (2 Bft) W-SW45 250 0,00 min 0 lux 8,4 C 4,7 C
10.10.2003 03:25 12,4 C 12,2 C 76 % 1016 hPa 0,0 l/m 9,0 m/s (2 Bft) W-SW45 255 0,00 min 0 lux 8,3 C 3,6 C
10.10.2003 03:30 12,3 C 12,2 C 76 % 1016 hPa 0,0 l/m 8,6 m/s (2 Bft) W-SW45 250 0,00 min 0 lux 8,2 C 3,7 C
10.10.2003 03:35 12,2 C 12,2 C 76 % 1016 hPa 0,0 l/m 6,2 m/s (2 Bft) W-SW22.5 250 0,00 min 0 lux 8,1 C 5,5 C
10.10.2003 03:40 12,2 C 12,2 C 76 % 1016 hPa 0,0 l/m 7,6 m/s (2 Bft) W45 260 0,00 min 0 lux 8,1 C 4,3 C
10.10.2003 03:45 12,1 C 12,2 C 76 % 1016 hPa 0,0 l/m 7,2 m/s (2 Bft) W22.5 260 0,00 min 0 lux 8,0 C 4,4 C
10.10.2003 03:50 12,1 C 12,1 C 76 % 1016 hPa 0,0 l/m 6,2 m/s (2 Bft) W-SW45 255 0,00 min 0 lux 8,0 C 5,4 C
10.10.2003 03:55 12,1 C 12,1 C 76 % 1016 hPa 0,0 l/m 5,7 m/s (1 Bft) W-SW45 250 0,00 min 0 lux 8,0 C 5,8 C
10.10.2003 04:00 12,1 C 12,1 C 76 % 1016 hPa 0,0 l/m 5,6 m/s (1 Bft) W-SW22.5 250 0,00 min 0 lux 8,0 C 6,0 C
10.10.2003 04:05 12,0 C 12,1 C 76 % 1016 hPa 0,0 l/m 5,8 m/s (2 Bft) W-SW45 250 0,00 min 0 lux 7,9 C 5,6 C
10.10.2003 04:10 12,0 C 12,1 C 75 % 1016 hPa 0,0 l/m 6,1 m/s (2 Bft) W22.5 260 0,00 min 0 lux 7,7 C 5,3 C
10.10.2003 04:15 12,0 C 12,0 C 75 % 1016 hPa 0,0 l/m 5,9 m/s (2 Bft) W-SW22.5 255 0,00 min 0 lux 7,7 C 5,6 C
10.10.2003 04:20 12,0 C 12,0 C 75 % 1016 hPa 0,0 l/m 6,0 m/s (2 Bft) W22.5 260 0,00 min 0 lux 7,7 C 5,4 C
10.10.2003 04:25 11,9 C 12,0 C 76 % 1016 hPa 0,0 l/m 3,6 m/s (1 Bft) W-SW22.5 255 0,00 min 0 lux 7,8 C 8,3 C
10.10.2003 04:30 11,9 C 12,0 C 76 % 1016 hPa 0,0 l/m 3,4 m/s (1 Bft) W-SW22.5 250 0,00 min 0 lux 7,8 C 8,6 C
10.10.2003 04:35 11,9 C 12,0 C 76 % 1016 hPa 0,0 l/m 4,4 m/s (1 Bft) W22.5 260 0,00 min 0 lux 7,8 C 7,1 C
10.10.2003 04:40 11,9 C 11,9 C 77 % 1016 hPa 0,0 l/m 4,7 m/s (1 Bft) W-SW45 250 0,00 min 0 lux 8,0 C 6,7 C
10.10.2003 04:45 11,9 C 12,0 C 77 % 1016 hPa 0,0 l/m 4,2 m/s (1 Bft) W22.5 260 0,00 min 0 lux 8,0 C 7,4 C
10.10.2003 04:50 11,8 C 11,9 C 77 % 1016 hPa 0,0 l/m 4,4 m/s (1 Bft) W22.5 260 0,00 min 0 lux 7,9 C 7,0 C
10.10.2003 04:55 11,8 C 11,9 C 77 % 1016 hPa 0,0 l/m 4,9 m/s (1 Bft) W-SW22.5 250 0,00 min 0 lux 7,9 C 6,4 C
10.10.2003 05:00 11,8 C 11,8 C 77 % 1016 hPa 0,0 l/m 5,3 m/s (1 Bft) W-SW22.5 255 0,00 min 0 lux 7,9 C 5,9 C
10.10.2003 05:05 11,8 C 11,8 C 77 % 1016 hPa 0,0 l/m 4,7 m/s (1 Bft) W-SW45 245 0,00 min 0 lux 7,9 C 6,7 C
10.10.2003 05:10 11,9 C 11,8 C 77 % 1016 hPa 0,0 l/m 5,6 m/s (1 Bft) W-SW45 245 0,00 min 0 lux 8,0 C 5,7 C
10.10.2003 05:15 11,8 C 11,8 C 76 % 1016 hPa 0,0 l/m 4,1 m/s (1 Bft) W-SW45 250 0,00 min 0 lux 7,7 C 7,5 C
10.10.2003 05:20 11,8 C 11,8 C 76 % 1016 hPa 0,0 l/m 5,3 m/s (1 Bft) W-SW45 250 0,00 min 0 lux 7,7 C 5,9 C
10.10.2003 05:25 11,7 C 11,8 C 76 % 1016 hPa 0,0 l/m 4,2 m/s (1 Bft) W-SW22.5 255 0,00 min 0 lux 7,6 C 7,2 C
10.10.2003 05:30 11,6 C 11,7 C 76 % 1016 hPa 0,0 l/m 4,8 m/s (1 Bft) W-SW45 255 0,00 min 0 lux 7,5 C 6,2 C
10.10.2003 05:35 11,5 C 11,7 C 76 % 1016 hPa 0,0 l/m 4,3 m/s (1 Bft) W-SW45 250 0,00 min 0 lux 7,4 C 6,8 C
10.10.2003 05:40 11,5 C 11,6 C 76 % 1016 hPa 0,0 l/m 3,8 m/s (1 Bft) W-SW45 250 0,00 min 0 lux 7,4 C 7,5 C
10.10.2003 05:45 11,4 C 11,6 C 77 % 1016 hPa 0,0 l/m 4,0 m/s (1 Bft) W-SW45 250 0,00 min 0 lux 7,5 C 7,0 C
10.10.2003 05:50 11,5 C 11,6 C 77 % 1016 hPa 0,0 l/m 4,5 m/s (1 Bft) W-SW22.5 255 0,00 min 0 lux 7,6 C 6,5 C
10.10.2003 05:55 11,4 C 11,6 C 77 % 1016 hPa 0,0 l/m 4,3 m/s (1 Bft) W-SW45 250 0,00 min 0 lux 7,5 C 6,6 C
10.10.2003 06:00 11,4 C 11,5 C 77 % 1016 hPa 0,0 l/m 3,8 m/s (1 Bft) W22.5 260 0,00 min 0 lux 7,5 C 7,4 C
10.10.2003 06:05 11,4 C 11,6 C 77 % 1016 hPa 0,0 l/m 4,0 m/s (1 Bft) W-SW22.5 250 0,00 min 0 lux 7,5 C 7,0 C
10.10.2003 06:10 11,4 C 11,5 C 77 % 1016 hPa 0,0 l/m 3,5 m/s (1 Bft) W-SW22.5 250 0,00 min 0 lux 7,5 C 7,9 C
10.10.2003 06:15 11,4 C 11,5 C 77 % 1016 hPa 0,0 l/m 3,0 m/s (1 Bft) W-SW22.5 255 0,00 min 0 lux 7,5 C 8,7 C
10.10.2003 06:20 11,4 C 11,5 C 76 % 1016 hPa 0,0 l/m 3,4 m/s (1 Bft) W-SW45 250 0,00 min 0 lux 7,3 C 8,0 C
10.10.2003 06:25 11,3 C 11,5 C 77 % 1016 hPa 0,0 l/m 4,6 m/s (1 Bft) W-SW45 255 0,00 min 0 lux 7,4 C 6,1 C
10.10.2003 06:30 11,4 C 11,5 C 76 % 1016 hPa 0,0 l/m 4,2 m/s (1 Bft) W-SW22.5 250 0,00 min 0 lux 7,3 C 6,8 C
10.10.2003 06:35 11,3 C 11,4 C 77 % 1016 hPa 0,0 l/m 2,8 m/s (1 Bft) W-SW45 255 0,00 min 0 lux 7,4 C 8,9 C
10.10.2003 06:40 11,4 C 11,4 C 76 % 1016 hPa 0,0 l/m 2,8 m/s (1 Bft) W-SW45 255 0,00 min 0 lux 7,3 C 9,0 C
10.10.2003 06:45 11,3 C 11,4 C 76 % 1016 hPa 0,0 l/m 3,8 m/s (1 Bft) W-SW45 255 0,00 min 0 lux 7,2 C 7,2 C
10.10.2003 06:50 11,3 C 11,4 C 77 % 1016 hPa 0,0 l/m 4,9 m/s (1 Bft) W-SW22.5 250 0,00 min 0 lux 7,4 C 5,7 C
10.10.2003 06:55 11,3 C 11,4 C 77 % 1016 hPa 0,0 l/m 4,1 m/s (1 Bft) W-SW45 255 0,00 min 0 lux 7,4 C 6,8 C
10.10.2003 07:00 11,3 C 11,4 C 77 % 1015 hPa 0,0 l/m 3,9 m/s (1 Bft) W-SW45 250 0,00 min 0 lux 7,4 C 7,1 C
10.10.2003 07:05 11,3 C 11,4 C 77 % 1015 hPa 0,0 l/m 3,8 m/s (1 Bft) W-SW22.5 245 0,00 min 0 lux 7,4 C 7,2 C
10.10.2003 07:10 11,3 C 11,4 C 78 % 1015 hPa 0,0 l/m 3,3 m/s (1 Bft) W22.5 260 0,00 min 0 lux 7,6 C 8,1 C
10.10.2003 07:15 11,3 C 11,3 C 78 % 1015 hPa 0,0 l/m 6,0 m/s (2 Bft) W-SW45 250 0,00 min 0 lux 7,6 C 4,5 C
10.10.2003 07:20 11,3 C 11,4 C 78 % 1015 hPa 0,0 l/m 4,9 m/s (1 Bft) W-SW22.5 255 0,00 min 0 lux 7,6 C 5,7 C
10.10.2003 07:25 11,1 C 11,3 C 78 % 1015 hPa 0,0 l/m 5,2 m/s (1 Bft) W45 260 0,00 min 0 lux 7,4 C 5,1 C
10.10.2003 07:30 11,3 C 11,3 C 78 % 1015 hPa 0,0 l/m 5,2 m/s (1 Bft) W-SW45 255 0,00 min 41 lux 7,6 C 5,3 C
10.10.2003 07:35 11,3 C 11,3 C 78 % 1015 hPa 0,0 l/m 3,4 m/s (1 Bft) W45 260 0,00 min 85 lux 7,6 C 7,8 C
10.10.2003 07:40 11,1 C 11,3 C 78 % 1015 hPa 0,0 l/m 4,4 m/s (1 Bft) W-SW22.5 255 0,00 min 173 lux 7,4 C 6,2 C
10.10.2003 07:45 11,2 C 11,3 C 78 % 1015 hPa 0,0 l/m 4,3 m/s (1 Bft) W-SW45 250 0,00 min 192 lux 7,5 C 6,4 C
10.10.2003 07:50 11,4 C 11,3 C 78 % 1015 hPa 0,0 l/m 5,8 m/s (2 Bft) W22.5 265 0,00 min 261 lux 7,7 C 4,8 C
10.10.2003 07:55 11,4 C 11,3 C 78 % 1016 hPa 0,0 l/m 4,9 m/s (1 Bft) W-SW45 245 0,00 min 354 lux 7,7 C 5,8 C
10.10.2003 08:00 11,1 C 11,3 C 78 % 1016 hPa 0,0 l/m 5,0 m/s (1 Bft) W-SW22.5 255 0,00 min 573 lux 7,4 C 5,3 C
10.10.2003 08:05 11,1 C 11,3 C 78 % 1015 hPa 0,0 l/m 5,1 m/s (1 Bft) W-SW22.5 245 0,00 min 913 lux 7,4 C 5,2 C
10.10.2003 08:10 11,1 C 11,3 C 78 % 1015 hPa 0,0 l/m 5,2 m/s (1 Bft) W-SW22.5 255 0,00 min 1,10 klux 7,4 C 5,1 C
10.10.2003 08:15 11,1 C 11,3 C 78 % 1016 hPa 0,0 l/m 6,0 m/s (2 Bft) W-SW45 245 0,00 min 1,12 klux 7,4 C 4,2 C
10.10.2003 08:20 11,3 C 11,3 C 77 % 1016 hPa 0,0 l/m 5,4 m/s (1 Bft) W-SW45 245 0,00 min 1,70 klux 7,4 C 5,2 C
10.10.2003 08:25 11,3 C 11,3 C 77 % 1016 hPa 0,0 l/m 6,5 m/s (2 Bft) W-SW67.5 245 0,00 min 2,55 klux 7,4 C 4,0 C
10.10.2003 08:30 11,1 C 11,3 C 77 % 1016 hPa 0,0 l/m 6,9 m/s (2 Bft) W-SW45 250 0,00 min 3,44 klux 7,2 C 3,3 C
10.10.2003 08:35 11,3 C 11,3 C 77 % 1016 hPa 0,0 l/m 6,6 m/s (2 Bft) W-SW45 245 0,00 min 3,79 klux 7,4 C 3,9 C
10.10.2003 08:40 11,1 C 11,3 C 77 % 1016 hPa 0,0 l/m 6,6 m/s (2 Bft) W-SW45 250 0,00 min 2,15 klux 7,2 C 3,6 C
10.10.2003 08:45 11,1 C 11,3 C 78 % 1016 hPa 0,0 l/m 5,1 m/s (1 Bft) W-SW22.5 250 0,00 min 2,95 klux 7,4 C 5,3 C
10.10.2003 08:50 11,1 C 11,3 C 78 % 1015 hPa 0,0 l/m 6,4 m/s (2 Bft) W-SW22.5 255 0,00 min 2,38 klux 7,4 C 3,9 C
10.10.2003 08:55 11,3 C 11,3 C 78 % 1015 hPa 0,0 l/m 6,4 m/s (2 Bft) W-SW22.5 255 0,00 min 3,42 klux 7,6 C 4,1 C
10.10.2003 09:00 11,3 C 11,3 C 78 % 1016 hPa 0,0 l/m 5,8 m/s (2 Bft) W-SW45 255 0,00 min 3,71 klux 7,6 C 4,7 C
10.10.2003 09:05 11,0 C 11,3 C 78 % 1016 hPa 0,0 l/m 5,8 m/s (2 Bft) W-SW45 245 0,00 min 3,78 klux 7,3 C 4,3 C
10.10.2003 09:10 11,1 C 11,3 C 79 % 1016 hPa 0,0 l/m 5,8 m/s (2 Bft) W-SW22.5 250 0,00 min 3,79 klux 7,6 C 4,5 C
10.10.2003 09:15 11,1 C 11,3 C 79 % 1016 hPa 0,0 l/m 5,6 m/s (1 Bft) W-SW22.5 255 0,00 min 4,02 klux 7,6 C 4,7 C
10.10.2003 09:20 11,1 C 11,3 C 79 % 1016 hPa 0,0 l/m 6,6 m/s (2 Bft) W-SW45 255 0,00 min 5,18 klux 7,6 C 3,6 C
10.10.2003 09:25 11,3 C 11,3 C 78 % 1016 hPa 0,0 l/m 5,5 m/s (1 Bft) W-SW45 250 0,00 min 7,24 klux 7,6 C 5,0 C
10.10.2003 09:30 11,3 C 11,4 C 78 % 1016 hPa 0,0 l/m 6,1 m/s (2 Bft) W-SW67.5 245 0,00 min 5,51 klux 7,6 C 4,4 C
10.10.2003 09:35 11,3 C 11,4 C 78 % 1016 hPa 0,0 l/m 4,8 m/s (1 Bft) W-SW22.5 255 0,00 min 6,57 klux 7,6 C 5,9 C
10.10.2003 09:40 11,4 C 11,5 C 78 % 1016 hPa 0,0 l/m 4,3 m/s (1 Bft) W-SW22.5 255 0,00 min 6,95 klux 7,7 C 6,6 C
10.10.2003 09:45 11,5 C 11,5 C 77 % 1016 hPa 0,0 l/m 6,2 m/s (2 Bft) W45 265 0,00 min 8,01 klux 7,6 C 4,6 C
10.10.2003 09:50 11,5 C 11,5 C 77 % 1016 hPa 0,0 l/m 5,0 m/s (1 Bft) W-SW67.5 255 0,00 min 8,15 klux 7,6 C 5,8 C
10.10.2003 09:55 11,6 C 11,5 C 77 % 1016 hPa 0,0 l/m 4,4 m/s (1 Bft) W-SW45 250 0,00 min 6,23 klux 7,7 C 6,8 C
10.10.2003 10:00 11,6 C 11,6 C 77 % 1016 hPa 0,0 l/m 6,3 m/s (2 Bft) W-SW67.5 245 0,00 min 6,54 klux 7,7 C 4,6 C
10.10.2003 10:05 11,6 C 11,6 C 77 % 1016 hPa 0,0 l/m 5,1 m/s (1 Bft) W-SW45 255 0,00 min 6,88 klux 7,7 C 5,8 C
10.10.2003 10:10 11,7 C 11,7 C 76 % 1016 hPa 0,0 l/m 5,2 m/s (1 Bft) W-SW45 255 0,00 min 8,15 klux 7,6 C 5,9 C
10.10.2003 10:15 11,7 C 11,7 C 76 % 1016 hPa 0,0 l/m 6,6 m/s (2 Bft) W-SW45 245 0,00 min 7,33 klux 7,6 C 4,5 C
10.10.2003 10:20 11,7 C 11,8 C 76 % 1016 hPa 0,0 l/m 7,2 m/s (2 Bft) W-SW45 245 0,00 min 10,0 klux 7,6 C 3,9 C
10.10.2003 10:25 11,8 C 11,8 C 76 % 1016 hPa 0,0 l/m 5,2 m/s (1 Bft) W45 260 0,00 min 6,95 klux 7,7 C 6,0 C
10.10.2003 10:30 11,8 C 11,8 C 76 % 1016 hPa 0,0 l/m 6,9 m/s (2 Bft) W-SW22.5 250 0,00 min 8,93 klux 7,7 C 4,3 C
10.10.2003 10:35 11,9 C 12,0 C 75 % 1016 hPa 0,0 l/m 7,5 m/s (2 Bft) W-SW67.5 255 0,00 min 9,9 klux 7,6 C 4,0 C
10.10.2003 10:40 12,0 C 12,0 C 74 % 1016 hPa 0,0 l/m 6,8 m/s (2 Bft) W45 260 0,00 min 9,6 klux 7,5 C 4,7 C
10.10.2003 10:45 12,0 C 12,1 C 74 % 1016 hPa 0,0 l/m 5,5 m/s (1 Bft) W-SW67.5 245 0,00 min 12,3 klux 7,5 C 5,9 C
10.10.2003 10:50 12,1 C 12,1 C 74 % 1016 hPa 0,0 l/m 6,6 m/s (2 Bft) W-SW45 245 0,00 min 10,2 klux 7,6 C 5,0 C
10.10.2003 10:55 12,1 C 12,2 C 74 % 1016 hPa 0,0 l/m 6,7 m/s (2 Bft) W45 260 0,00 min 10,4 klux 7,6 C 4,9 C
10.10.2003 11:00 12,1 C 12,2 C 74 % 1016 hPa 0,0 l/m 5,1 m/s (1 Bft) W-SW22.5 255 0,00 min 10,2 klux 7,6 C 6,5 C
10.10.2003 11:05 12,2 C 12,2 C 74 % 1016 hPa 0,0 l/m 4,3 m/s (1 Bft) W-SW22.5 255 0,00 min 11,8 klux 7,7 C 7,7 C
10.10.2003 11:10 12,4 C 12,3 C 73 % 1016 hPa 0,0 l/m 5,1 m/s (1 Bft) W-SW45 245 0,00 min 14,1 klux 7,7 C 6,8 C
10.10.2003 11:15 12,5 C 12,3 C 74 % 1016 hPa 0,0 l/m 4,6 m/s (1 Bft) W-SW45 250 0,00 min 14,1 klux 8,0 C 7,6 C
10.10.2003 11:20 12,5 C 12,4 C 73 % 1016 hPa 0,0 l/m 5,1 m/s (1 Bft) W-SW22.5 245 0,00 min 11,0 klux 7,8 C 7,0 C
10.10.2003 11:25 12,4 C 12,5 C 73 % 1016 hPa 0,0 l/m 4,6 m/s (1 Bft) W-SW45 250 0,00 min 9,8 klux 7,7 C 7,5 C
10.10.2003 11:30 12,4 C 12,5 C 73 % 1016 hPa 0,0 l/m 6,4 m/s (2 Bft) W-SW22.5 250 0,00 min 8,71 klux 7,7 C 5,6 C
10.10.2003 11:35 12,5 C 12,5 C 73 % 1016 hPa 0,0 l/m 5,6 m/s (1 Bft) W-SW45 255 0,00 min 10,4 klux 7,8 C 6,4 C
10.10.2003 11:40 12,5 C 12,6 C 73 % 1016 hPa 0,0 l/m 6,0 m/s (2 Bft) W-SW45 245 0,00 min 13,7 klux 7,8 C 6,1 C
10.10.2003 11:45 12,7 C 12,6 C 73 % 1016 hPa 0,0 l/m 6,3 m/s (2 Bft) W-SW22.5 250 0,00 min 14,7 klux 8,0 C 6,0 C
10.10.2003 11:50 12,7 C 12,7 C 73 % 1016 hPa 0,0 l/m 7,4 m/s (2 Bft) W-SW22.5 245 0,00 min 13,4 klux 8,0 C 5,1 C
10.10.2003 11:55 12,8 C 12,7 C 73 % 1016 hPa 0,0 l/m 5,9 m/s (2 Bft) W-SW22.5 250 0,00 min 17,6 klux 8,1 C 6,6 C
10.10.2003 12:00 12,9 C 12,9 C 73 % 1016 hPa 0,0 l/m 4,5 m/s (1 Bft) W-SW45 245 0,00 min 16,3 klux 8,2 C 8,2 C
10.10.2003 12:05 13,2 C 12,9 C 71 % 1016 hPa 0,0 l/m 7,5 m/s (2 Bft) W-SW45 250 0,00 min 27,8 klux 8,1 C 5,7 C
10.10.2003 12:10 13,3 C 13,1 C 71 % 1016 hPa 0,0 l/m 5,9 m/s (2 Bft) W-SW67.5 255 0,00 min 26,5 klux 8,2 C 7,2 C
10.10.2003 12:15 13,5 C 13,3 C 70 % 1016 hPa 0,0 l/m 4,9 m/s (1 Bft) W-SW45 255 0,00 min 19,2 klux 8,1 C 8,5 C
10.10.2003 12:20 13,4 C 13,4 C 70 % 1016 hPa 0,0 l/m 5,4 m/s (1 Bft) W45 260 0,00 min 18,6 klux 8,0 C 7,8 C
10.10.2003 12:25 13,5 C 13,6 C 71 % 1016 hPa 0,0 l/m 5,4 m/s (1 Bft) SW45 235 0,00 min 37,9 klux 8,3 C 8,0 C
10.10.2003 12:30 13,9 C 14,2 C 69 % 1016 hPa 0,0 l/m 5,4 m/s (1 Bft) W-SW45 250 5,00 min 72,3 klux 8,3 C 8,4 C
10.10.2003 12:35 13,8 C 14,3 C 69 % 1016 hPa 0,0 l/m 6,3 m/s (2 Bft) W-SW45 245 0,00 min 17,4 klux 8,2 C 7,5 C
10.10.2003 12:40 13,8 C 14,3 C 69 % 1016 hPa 0,0 l/m 7,1 m/s (2 Bft) W-SW45 250 0,00 min 19,8 klux 8,2 C 6,9 C
10.10.2003 12:45 13,8 C 14,3 C 69 % 1016 hPa 0,0 l/m 7,9 m/s (2 Bft) W-SW45 240 0,00 min 14,5 klux 8,2 C 6,3 C
10.10.2003 12:50 13,9 C 14,2 C 69 % 1016 hPa 0,0 l/m 9,6 m/s (2 Bft) W-SW22.5 255 0,00 min 15,4 klux 8,3 C 5,4 C
10.10.2003 12:55 13,9 C 14,2 C 69 % 1016 hPa 0,0 l/m 5,0 m/s (1 Bft) W-SW45 255 0,00 min 16,9 klux 8,3 C 8,9 C
10.10.2003 13:00 14,0 C 14,2 C 68 % 1016 hPa 0,0 l/m 7,1 m/s (2 Bft) W45 260 0,00 min 17,4 klux 8,2 C 7,1 C
10.10.2003 13:05 14,2 C 14,3 C 67 % 1016 hPa 0,0 l/m 8,4 m/s (2 Bft) W-SW22.5 255 0,00 min 19,3 klux 8,2 C 6,5 C
10.10.2003 13:10 14,2 C 14,3 C 67 % 1016 hPa 0,0 l/m 7,9 m/s (2 Bft) W45 260 0,00 min 18,4 klux 8,2 C 6,8 C
10.10.2003 13:15 14,2 C 14,3 C 67 % 1016 hPa 0,0 l/m 8,3 m/s (2 Bft) W-SW45 245 0,00 min 16,6 klux 8,2 C 6,6 C
10.10.2003 13:20 14,2 C 14,4 C 67 % 1016 hPa 0,0 l/m 8,3 m/s (2 Bft) W-SW45 245 0,00 min 17,5 klux 8,2 C 6,6 C
10.10.2003 13:25 14,2 C 14,4 C 67 % 1016 hPa 0,0 l/m 7,7 m/s (2 Bft) W-SW22.5 255 0,00 min 15,4 klux 8,2 C 7,0 C
10.10.2003 13:30 14,2 C 14,4 C 67 % 1016 hPa 0,0 l/m 7,3 m/s (2 Bft) W-SW67.5 250 0,00 min 17,6 klux 8,2 C 7,2 C
10.10.2003 13:35 14,2 C 14,4 C 68 % 1016 hPa 0,0 l/m 9,3 m/s (2 Bft) W-SW22.5 255 0,00 min 21,2 klux 8,4 C 6,0 C
10.10.2003 13:40 14,1 C 14,5 C 67 % 1016 hPa 0,0 l/m 8,5 m/s (2 Bft) W-SW45 240 0,00 min 21,0 klux 8,1 C 6,3 C
10.10.2003 13:45 14,1 C 14,5 C 67 % 1016 hPa 0,0 l/m 6,7 m/s (2 Bft) W-SW45 245 0,00 min 17,6 klux 8,1 C 7,6 C
10.10.2003 13:50 14,1 C 14,5 C 68 % 1016 hPa 0,0 l/m 6,8 m/s (2 Bft) W-SW45 255 0,00 min 19,8 klux 8,3 C 7,5 C
10.10.2003 13:55 14,0 C 14,5 C 68 % 1016 hPa 0,0 l/m 9,5 m/s (2 Bft) W-SW22.5 250 0,00 min 17,6 klux 8,2 C 5,6 C
10.10.2003 14:00 14,1 C 14,5 C 69 % 1016 hPa 0,0 l/m 6,6 m/s (2 Bft) W-SW45 250 0,00 min 19,1 klux 8,5 C 7,7 C
10.10.2003 14:05 14,1 C 14,5 C 69 % 1016 hPa 0,0 l/m 7,1 m/s (2 Bft) W-SW22.5 250 0,00 min 19,0 klux 8,5 C 7,2 C
10.10.2003 14:10 14,0 C 14,5 C 69 % 1016 hPa 0,0 l/m 8,7 m/s (2 Bft) W-SW22.5 250 0,00 min 18,2 klux 8,4 C 6,1 C
10.10.2003 14:15 13,8 C 14,4 C 71 % 1016 hPa 0,0 l/m 6,6 m/s (2 Bft) W22.5 260 0,00 min 10,1 klux 8,6 C 7,3 C
10.10.2003 14:20 13,8 C 14,4 C 71 % 1016 hPa 0,0 l/m 7,8 m/s (2 Bft) W-SW45 250 0,00 min 11,8 klux 8,6 C 6,4 C
10.10.2003 14:25 13,6 C 14,2 C 72 % 1016 hPa 0,0 l/m 7,2 m/s (2 Bft) W-SW45 250 0,00 min 7,41 klux 8,6 C 6,5 C
10.10.2003 14:30 13,6 C 14,1 C 73 % 1016 hPa 0,0 l/m 6,3 m/s (2 Bft) W-SW67.5 250 0,00 min 8,99 klux 8,9 C 7,2 C
10.10.2003 14:35 13,5 C 14,1 C 74 % 1016 hPa 0,0 l/m 7,6 m/s (2 Bft) W-SW45 250 0,00 min 7,45 klux 9,0 C 6,1 C
10.10.2003 14:40 13,3 C 14,0 C 74 % 1016 hPa 0,0 l/m 5,2 m/s (1 Bft) W-SW22.5 255 0,00 min 6,88 klux 8,8 C 7,9 C
10.10.2003 14:45 13,2 C 13,9 C 76 % 1017 hPa 0,0 l/m 6,4 m/s (2 Bft) W-SW45 240 0,00 min 7,04 klux 9,1 C 6,6 C
10.10.2003 14:50 13,2 C 13,8 C 76 % 1016 hPa 0,0 l/m 5,6 m/s (1 Bft) W-SW22.5 255 0,00 min 6,63 klux 9,1 C 7,3 C
10.10.2003 14:55 13,2 C 13,7 C 76 % 1016 hPa 0,0 l/m 5,4 m/s (1 Bft) W-SW45 255 0,00 min 7,73 klux 9,1 C 7,6 C
10.10.2003 15:00 13,2 C 13,6 C 77 % 1016 hPa 0,0 l/m 5,8 m/s (2 Bft) W45 260 0,00 min 6,67 klux 9,3 C 7,2 C
10.10.2003 15:05 13,2 C 13,5 C 77 % 1016 hPa 0,0 l/m 5,3 m/s (1 Bft) SW67.5 235 0,00 min 6,35 klux 9,3 C 7,7 C
10.10.2003 15:10 13,2 C 13,5 C 77 % 1017 hPa 0,0 l/m 6,3 m/s (2 Bft) W-SW45 255 0,00 min 6,49 klux 9,3 C 6,7 C
10.10.2003 15:15 13,2 C 13,5 C 77 % 1017 hPa 0,0 l/m 4,6 m/s (1 Bft) W45 260 0,00 min 5,86 klux 9,3 C 8,5 C
10.10.2003 15:20 13,3 C 13,5 C 77 % 1017 hPa 0,0 l/m 7,2 m/s (2 Bft) W-SW45 255 0,00 min 6,58 klux 9,4 C 6,1 C
10.10.2003 15:25 13,3 C 13,5 C 78 % 1016 hPa 0,0 l/m 5,2 m/s (1 Bft) W45 260 0,00 min 5,14 klux 9,5 C 8,0 C
10.10.2003 15:30 13,4 C 13,5 C 78 % 1016 hPa 0,0 l/m 6,1 m/s (2 Bft) W-SW45 250 0,00 min 7,24 klux 9,6 C 7,1 C
10.10.2003 15:35 13,5 C 13,5 C 78 % 1016 hPa 0,0 l/m 5,2 m/s (1 Bft) W-SW45 250 0,00 min 12,8 klux 9,7 C 8,2 C
10.10.2003 15:40 13,7 C 13,7 C 77 % 1016 hPa 0,0 l/m 5,6 m/s (1 Bft) W-SW45 245 0,00 min 17,6 klux 9,7 C 8,1 C
10.10.2003 15:45 13,9 C 13,8 C 77 % 1016 hPa 0,0 l/m 5,5 m/s (1 Bft) W-SW22.5 255 0,00 min 18,9 klux 9,9 C 8,4 C
10.10.2003 15:50 14,1 C 14,0 C 75 % 1016 hPa 0,0 l/m 6,3 m/s (2 Bft) W-SW22.5 245 0,00 min 19,0 klux 9,7 C 8,0 C
10.10.2003 15:55 14,2 C 14,2 C 74 % 1016 hPa 0,0 l/m 5,3 m/s (1 Bft) W67.5 260 0,00 min 24,7 klux 9,6 C 8,9 C
10.10.2003 16:00 14,3 C 14,4 C 74 % 1016 hPa 0,0 l/m 7,5 m/s (2 Bft) W-SW45 255 0,00 min 17,7 klux 9,7 C 7,3 C
10.10.2003 16:05 14,3 C 14,4 C 74 % 1016 hPa 0,0 l/m 7,8 m/s (2 Bft) W-SW45 250 0,00 min 13,5 klux 9,7 C 7,0 C
10.10.2003 16:10 14,3 C 14,4 C 74 % 1016 hPa 0,0 l/m 6,0 m/s (2 Bft) W-SW45 255 0,00 min 12,8 klux 9,7 C 8,5 C
10.10.2003 16:15 14,3 C 14,5 C 74 % 1016 hPa 0,0 l/m 7,0 m/s (2 Bft) W-SW22.5 255 0,00 min 13,1 klux 9,7 C 7,6 C
10.10.2003 16:20 14,4 C 14,5 C 74 % 1016 hPa 0,0 l/m 8,8 m/s (2 Bft) W45 260 0,00 min 13,9 klux 9,8 C 6,6 C
10.10.2003 16:25 14,5 C 14,6 C 74 % 1016 hPa 0,0 l/m 7,3 m/s (2 Bft) W-SW22.5 255 0,00 min 19,1 klux 9,9 C 7,6 C
10.10.2003 16:30 14,4 C 14,7 C 74 % 1016 hPa 0,0 l/m 7,4 m/s (2 Bft) W-SW45 250 0,00 min 9,6 klux 9,8 C 7,4 C
10.10.2003 16:35 14,2 C 14,6 C 75 % 1016 hPa 0,0 l/m 8,2 m/s (2 Bft) W-SW45 250 0,00 min 7,23 klux 9,8 C 6,6 C
10.10.2003 16:40 14,2 C 14,5 C 75 % 1016 hPa 0,0 l/m 9,2 m/s (2 Bft) W22.5 260 0,00 min 5,31 klux 9,8 C 6,1 C
10.10.2003 16:45 14,1 C 14,5 C 75 % 1016 hPa 0,0 l/m 7,1 m/s (2 Bft) W-SW45 250 0,00 min 4,42 klux 9,7 C 7,3 C
10.10.2003 16:50 14,0 C 14,4 C 76 % 1016 hPa 0,0 l/m 7,1 m/s (2 Bft) W-SW45 245 0,00 min 4,05 klux 9,8 C 7,1 C
10.10.2003 16:55 14,0 C 14,4 C 76 % 1016 hPa 0,0 l/m 6,6 m/s (2 Bft) W-SW22.5 255 0,00 min 4,10 klux 9,8 C 7,5 C
10.10.2003 17:00 14,0 C 14,3 C 76 % 1016 hPa 0,0 l/m 8,8 m/s (2 Bft) W-SW45 255 0,00 min 3,86 klux 9,8 C 6,0 C
10.10.2003 17:05 13,9 C 14,3 C 77 % 1016 hPa 0,0 l/m 7,5 m/s (2 Bft) W-SW45 240 0,00 min 3,86 klux 9,9 C 6,7 C
10.10.2003 17:10 13,9 C 14,2 C 77 % 1017 hPa 0,0 l/m 7,1 m/s (2 Bft) W-SW22.5 250 0,00 min 4,38 klux 9,9 C 7,0 C
10.10.2003 17:15 13,8 C 14,2 C 77 % 1017 hPa 0,0 l/m 7,8 m/s (2 Bft) W-SW22.5 255 0,00 min 3,22 klux 9,8 C 6,3 C
10.10.2003 17:20 13,8 C 14,1 C 78 % 1017 hPa 0,0 l/m 6,1 m/s (2 Bft) W-SW67.5 250 0,00 min 3,47 klux 10,0 C 7,7 C
10.10.2003 17:25 13,8 C 14,0 C 78 % 1017 hPa 0,0 l/m 4,6 m/s (1 Bft) W-SW45 250 0,00 min 2,41 klux 10,0 C 9,2 C
10.10.2003 17:30 13,7 C 14,0 C 79 % 1017 hPa 0,0 l/m 6,4 m/s (2 Bft) W-SW45 250 0,00 min 2,01 klux 10,1 C 7,3 C
10.10.2003 17:35 13,7 C 14,0 C 79 % 1017 hPa 0,0 l/m 4,9 m/s (1 Bft) W-SW22.5 255 0,00 min 2,17 klux 10,1 C 8,7 C
10.10.2003 17:40 13,6 C 13,9 C 79 % 1017 hPa 0,0 l/m 4,8 m/s (1 Bft) W-SW22.5 250 0,00 min 1,81 klux 10,0 C 8,8 C
10.10.2003 17:45 13,5 C 13,9 C 80 % 1017 hPa 0,0 l/m 3,9 m/s (1 Bft) W-SW22.5 255 0,00 min 1,43 klux 10,1 C 9,7 C
10.10.2003 17:50 13,5 C 13,9 C 80 % 1017 hPa 0,0 l/m 5,4 m/s (1 Bft) W-SW45 245 0,00 min 1,06 klux 10,1 C 8,0 C
10.10.2003 17:55 13,4 C 13,8 C 82 % 1017 hPa 0,0 l/m 5,4 m/s (1 Bft) W-SW45 250 0,00 min 932 lux 10,4 C 7,9 C
10.10.2003 18:00 13,2 C 13,7 C 82 % 1017 hPa 0,0 l/m 4,6 m/s (1 Bft) W-SW22.5 245 0,00 min 764 lux 10,2 C 8,5 C
10.10.2003 18:05 12,9 C 13,5 C 84 % 1017 hPa 0,0 l/m 5,4 m/s (1 Bft) W-SW45 250 0,00 min 551 lux 10,3 C 7,2 C
10.10.2003 18:10 12,8 C 13,4 C 84 % 1017 hPa 0,0 l/m 5,2 m/s (1 Bft) W-SW45 255 0,00 min 606 lux 10,2 C 7,3 C
10.10.2003 18:15 12,8 C 13,3 C 84 % 1017 hPa 0,0 l/m 5,1 m/s (1 Bft) W-SW45 250 0,00 min 431 lux 10,2 C 7,4 C
10.10.2003 18:20 12,8 C 13,2 C 85 % 1017 hPa 0,0 l/m 5,0 m/s (1 Bft) W-SW45 250 0,00 min 390 lux 10,3 C 7,5 C
10.10.2003 18:25 12,8 C 13,2 C 85 % 1017 hPa 0,0 l/m 3,3 m/s (1 Bft) W-SW45 245 0,00 min 449 lux 10,3 C 9,7 C
10.10.2003 18:30 12,8 C 13,1 C 85 % 1017 hPa 0,0 l/m 4,2 m/s (1 Bft) W-SW45 250 0,00 min 316 lux 10,3 C 8,5 C
10.10.2003 18:35 12,8 C 13,1 C 85 % 1017 hPa 0,0 l/m 3,1 m/s (1 Bft) W-SW45 245 0,00 min 222 lux 10,3 C 10,1 C
10.10.2003 18:40 12,7 C 13,0 C 85 % 1018 hPa 0,0 l/m 3,2 m/s (1 Bft) W-SW45 250 0,00 min 165 lux 10,2 C 9,8 C
10.10.2003 18:45 12,7 C 13,0 C 85 % 1018 hPa 0,0 l/m 3,1 m/s (1 Bft) W-SW22.5 250 0,00 min 97 lux 10,2 C 10,0 C
10.10.2003 18:50 12,7 C 13,0 C 85 % 1018 hPa 0,0 l/m 5,0 m/s (1 Bft) W-SW22.5 255 0,00 min 187 lux 10,2 C 7,3 C
10.10.2003 18:55 12,7 C 13,0 C 85 % 1018 hPa 0,0 l/m 4,6 m/s (1 Bft) W-SW22.5 255 0,00 min 74 lux 10,2 C 7,8 C
10.10.2003 19:00 12,7 C 12,9 C 85 % 1018 hPa 0,0 l/m 4,2 m/s (1 Bft) W-SW45 250 0,00 min 41 lux 10,2 C 8,3 C
10.10.2003 19:05 12,7 C 12,9 C 85 % 1018 hPa 0,0 l/m 3,5 m/s (1 Bft) W-SW22.5 250 0,00 min 27 lux 10,2 C 9,4 C
10.10.2003 19:10 12,7 C 12,9 C 84 % 1018 hPa 0,0 l/m 4,5 m/s (1 Bft) W-SW45 250 0,00 min 13 lux 10,1 C 8,0 C
10.10.2003 19:15 12,8 C 12,9 C 84 % 1018 hPa 0,0 l/m 4,2 m/s (1 Bft) W-SW22.5 250 0,00 min 11 lux 10,2 C 8,5 C
10.10.2003 19:20 12,8 C 12,8 C 84 % 1018 hPa 0,0 l/m 4,7 m/s (1 Bft) W-SW22.5 255 0,00 min 6 lux 10,2 C 7,8 C
10.10.2003 19:25 12,8 C 12,8 C 84 % 1018 hPa 0,0 l/m 4,7 m/s (1 Bft) W-SW22.5 255 0,00 min 4 lux 10,2 C 7,8 C
10.10.2003 19:30 12,8 C 12,8 C 84 % 1018 hPa 0,0 l/m 4,1 m/s (1 Bft) W-SW22.5 250 0,00 min 0 lux 10,2 C 8,6 C
10.10.2003 19:35 12,7 C 12,7 C 84 % 1018 hPa 0,0 l/m 4,0 m/s (1 Bft) W-SW22.5 250 0,00 min 0 lux 10,1 C 8,6 C
10.10.2003 19:40 12,7 C 12,7 C 83 % 1018 hPa 0,0 l/m 4,3 m/s (1 Bft) W-SW22.5 255 0,00 min 0 lux 9,9 C 8,3 C
10.10.2003 19:45 12,8 C 12,7 C 83 % 1018 hPa 0,0 l/m 5,6 m/s (1 Bft) W-SW45 255 0,00 min 0 lux 10,0 C 6,8 C
10.10.2003 19:50 13,0 C 12,8 C 81 % 1018 hPa 0,0 l/m 6,8 m/s (2 Bft) W45 260 0,00 min 0 lux 9,8 C 6,1 C
10.10.2003 19:55 13,1 C 12,8 C 80 % 1018 hPa 0,0 l/m 4,6 m/s (1 Bft) W45 260 0,00 min 0 lux 9,7 C 8,3 C
10.10.2003 20:00 13,1 C 12,8 C 80 % 1018 hPa 0,0 l/m 4,6 m/s (1 Bft) W-SW22.5 255 0,00 min 0 lux 9,7 C 8,3 C
10.10.2003 20:05 13,1 C 12,9 C 80 % 1018 hPa 0,0 l/m 3,6 m/s (1 Bft) W-SW22.5 255 0,00 min 0 lux 9,7 C 9,6 C
10.10.2003 20:10 13,1 C 12,9 C 80 % 1018 hPa 0,0 l/m 3,6 m/s (1 Bft) W-SW22.5 255 0,00 min 0 lux 9,7 C 9,6 C
10.10.2003 20:15 13,1 C 12,9 C 80 % 1018 hPa 0,0 l/m 3,9 m/s (1 Bft) W45 270 0,00 min 0 lux 9,7 C 9,2 C
10.10.2003 20:20 13,1 C 12,9 C 80 % 1018 hPa 0,0 l/m 4,1 m/s (1 Bft) W45 260 0,00 min 0 lux 9,7 C 9,0 C
10.10.2003 20:25 13,1 C 12,9 C 80 % 1018 hPa 0,0 l/m 4,2 m/s (1 Bft) W-SW22.5 250 0,00 min 0 lux 9,7 C 8,8 C
10.10.2003 20:30 13,2 C 12,9 C 79 % 1018 hPa 0,0 l/m 4,8 m/s (1 Bft) W-SW45 255 0,00 min 0 lux 9,6 C 8,2 C
10.10.2003 20:35 13,2 C 12,9 C 79 % 1018 hPa 0,0 l/m 2,2 m/s (1 Bft) W-SW22.5 250 0,00 min 0 lux 9,6 C 12,3 C
10.10.2003 20:40 13,1 C 12,9 C 80 % 1018 hPa 0,0 l/m 3,5 m/s (1 Bft) W-SW22.5 250 0,00 min 0 lux 9,7 C 9,8 C
10.10.2003 20:45 13,1 C 12,9 C 79 % 1018 hPa 0,0 l/m 3,3 m/s (1 Bft) W-SW22.5 255 0,00 min 0 lux 9,5 C 10,2 C
10.10.2003 20:50 13,1 C 12,9 C 79 % 1018 hPa 0,0 l/m 4,4 m/s (1 Bft) W-SW22.5 250 0,00 min 0 lux 9,5 C 8,6 C
10.10.2003 20:55 13,0 C 12,9 C 79 % 1018 hPa 0,0 l/m 4,6 m/s (1 Bft) W22.5 260 0,00 min 0 lux 9,4 C 8,2 C
10.10.2003 21:00 13,0 C 12,8 C 80 % 1018 hPa 0,0 l/m 3,3 m/s (1 Bft) W-SW22.5 255 0,00 min 0 lux 9,6 C 10,1 C
10.10.2003 21:05 13,0 C 12,8 C 80 % 1018 hPa 0,0 l/m 3,9 m/s (1 Bft) W-SW22.5 255 0,00 min 0 lux 9,6 C 9,2 C
10.10.2003 21:10 13,0 C 12,8 C 80 % 1018 hPa 0,0 l/m 3,9 m/s (1 Bft) W-SW22.5 245 0,00 min 0 lux 9,6 C 9,1 C
10.10.2003 21:15 12,8 C 12,7 C 81 % 1018 hPa 0,0 l/m 4,5 m/s (1 Bft) W-SW22.5 250 0,00 min 0 lux 9,6 C 8,1 C
10.10.2003 21:20 12,7 C 12,6 C 81 % 1018 hPa 0,0 l/m 3,9 m/s (1 Bft) W67.5 260 0,00 min 0 lux 9,5 C 8,7 C
10.10.2003 21:25 12,7 C 12,6 C 81 % 1018 hPa 0,0 l/m 3,6 m/s (1 Bft) W-SW22.5 255 0,00 min 0 lux 9,5 C 9,2 C
10.10.2003 21:30 12,6 C 12,5 C 81 % 1018 hPa 0,0 l/m 3,3 m/s (1 Bft) W22.5 265 0,00 min 0 lux 9,4 C 9,6 C
10.10.2003 21:35 12,6 C 12,4 C 81 % 1018 hPa 0,0 l/m 3,9 m/s (1 Bft) W22.5 260 0,00 min 0 lux 9,4 C 8,6 C
10.10.2003 21:40 12,8 C 12,4 C 81 % 1018 hPa 0,0 l/m 4,2 m/s (1 Bft) W22.5 260 0,00 min 0 lux 9,6 C 8,5 C
10.10.2003 21:45 12,8 C 12,5 C 81 % 1018 hPa 0,0 l/m 2,8 m/s (1 Bft) W45 260 0,00 min 0 lux 9,6 C 10,7 C
10.10.2003 21:50 12,9 C 12,5 C 80 % 1018 hPa 0,0 l/m 3,4 m/s (1 Bft) W22.5 260 0,00 min 0 lux 9,5 C 9,7 C
10.10.2003 21:55 12,9 C 12,5 C 80 % 1018 hPa 0,0 l/m 2,8 m/s (1 Bft) W22.5 270 0,00 min 0 lux 9,5 C 10,7 C
10.10.2003 22:00 12,9 C 12,6 C 80 % 1018 hPa 0,0 l/m 2,9 m/s (1 Bft) W-SW22.5 250 0,00 min 0 lux 9,5 C 10,6 C
10.10.2003 22:05 12,9 C 12,6 C 81 % 1019 hPa 0,0 l/m 2,4 m/s (1 Bft) W22.5 260 0,00 min 0 lux 9,7 C 11,4 C
10.10.2003 22:10 12,9 C 12,7 C 81 % 1018 hPa 0,0 l/m 2,7 m/s (1 Bft) W-SW22.5 250 0,00 min 0 lux 9,7 C 11,0 C
10.10.2003 22:15 12,9 C 12,7 C 80 % 1019 hPa 0,0 l/m 2,0 m/s (1 Bft) W-SW45 250 0,00 min 0 lux 9,5 C 12,4 C
10.10.2003 22:20 12,9 C 12,7 C 81 % 1019 hPa 0,0 l/m 2,4 m/s (1 Bft) W-SW22.5 250 0,00 min 0 lux 9,7 C 11,4 C
10.10.2003 22:25 13,0 C 12,7 C 80 % 1019 hPa 0,0 l/m 3,3 m/s (1 Bft) W22.5 260 0,00 min 0 lux 9,6 C 10,1 C
10.10.2003 22:30 13,0 C 12,8 C 80 % 1019 hPa 0,0 l/m 3,6 m/s (1 Bft) W-SW22.5 250 0,00 min 0 lux 9,6 C 9,6 C
10.10.2003 22:35 13,0 C 12,8 C 80 % 1018 hPa 0,0 l/m 3,2 m/s (1 Bft) W-SW22.5 255 0,00 min 0 lux 9,6 C 10,2 C
10.10.2003 22:40 13,0 C 12,8 C 80 % 1018 hPa 0,0 l/m 3,2 m/s (1 Bft) W-SW22.5 250 0,00 min 0 lux 9,6 C 10,1 C
10.10.2003 22:45 12,9 C 12,8 C 81 % 1018 hPa 0,0 l/m 3,3 m/s (1 Bft) W-SW45 255 0,00 min 0 lux 9,7 C 9,9 C
10.10.2003 22:50 13,0 C 12,8 C 80 % 1018 hPa 0,0 l/m 3,0 m/s (1 Bft) W22.5 260 0,00 min 0 lux 9,6 C 10,5 C
10.10.2003 22:55 13,0 C 12,8 C 80 % 1018 hPa 0,0 l/m 2,9 m/s (1 Bft) W-SW45 255 0,00 min 0 lux 9,6 C 10,7 C
10.10.2003 23:00 13,0 C 12,8 C 80 % 1018 hPa 0,0 l/m 2,7 m/s (1 Bft) W22.5 260 0,00 min 0 lux 9,6 C 11,0 C
10.10.2003 23:05 13,0 C 12,9 C 81 % 1018 hPa 0,0 l/m 2,5 m/s (1 Bft) W22.5 260 0,00 min 0 lux 9,8 C 11,5 C
10.10.2003 23:10 13,1 C 12,8 C 81 % 1019 hPa 0,0 l/m 3,4 m/s (1 Bft) W-SW22.5 250 0,00 min 0 lux 9,9 C 10,0 C
10.10.2003 23:15 13,1 C 12,9 C 80 % 1019 hPa 0,0 l/m 4,1 m/s (1 Bft) W-SW45 255 0,00 min 0 lux 9,7 C 9,0 C
10.10.2003 23:20 13,1 C 12,9 C 80 % 1019 hPa 0,0 l/m 3,2 m/s (1 Bft) W22.5 260 0,00 min 0 lux 9,7 C 10,4 C
10.10.2003 23:25 13,1 C 12,9 C 81 % 1019 hPa 0,0 l/m 3,6 m/s (1 Bft) W22.5 260 0,00 min 0 lux 9,9 C 9,6 C
10.10.2003 23:30 13,1 C 13,0 C 81 % 1019 hPa 0,0 l/m 3,4 m/s (1 Bft) W-SW45 250 0,00 min 0 lux 9,9 C 10,0 C
10.10.2003 23:35 13,0 C 13,0 C 81 % 1019 hPa 0,0 l/m 2,2 m/s (1 Bft) W-SW22.5 255 0,00 min 0 lux 9,8 C 12,0 C
10.10.2003 23:40 13,1 C 13,0 C 81 % 1019 hPa 0,0 l/m 3,1 m/s (1 Bft) W-SW45 245 0,00 min 0 lux 9,9 C 10,4 C
10.10.2003 23:45 13,0 C 13,0 C 82 % 1019 hPa 0,0 l/m 3,6 m/s (1 Bft) W-SW22.5 245 0,00 min 0 lux 10,0 C 9,6 C
10.10.2003 23:50 13,0 C 13,0 C 82 % 1019 hPa 0,0 l/m 3,8 m/s (1 Bft) W-SW45 255 0,00 min 0 lux 10,0 C 9,3 C
10.10.2003 23:55 13,0 C 13,0 C 82 % 1019 hPa 0,0 l/m 2,9 m/s (1 Bft) W-SW45 250 0,00 min 0 lux 10,0 C 10,7 C
_ Min-Zeit 09:05 07:15 13:05 07:00 - 00:40 - - - - 08:30 08:30
Minimum _ 11,0 C 11,3 C 67 % 1015 hPa - 0,0 m/s (0 Bft) - - - - 7,2 C 3,3 C
_ Max-Zeit 16:25 16:30 18:20 22:05 00:00 03:10 - - 12:30 12:30 17:55 22:15
Maximum _ 14,5 C 14,7 C 85 % 1019 hPa 0,0 l/m 9,7 m/s
W-SW (5 Bft)
- - 5,00 min 72,3 klux 10,4 C 12,4 C
Durchschnitt _ 12,6 C 12,6 C 78 % 1017 hPa #0,0 l/m 4,9 m/s (3 Bft) W-SW - #5 min. 4,52 klux 8,8 C 7,6 C